Weather History for Doylestown, PA

Change the Weather History Date:

Wednesday, March 6, 2013

  Actual Average (KTTN) Record (KTTN)
Temperature  
Mean Temperature 36 °F 38 °F  
Max Temperature 39 °F 48 °F 71 °F (1894)
Min Temperature 33 °F 29 °F 7 °F (1872)
Degree Days  
Heating Degree Days 29 27  
Month to date heating degree days 164  
Since 1 July heating degree days 3978  
Cooling Degree Days 0 0  
Month to date cooling degree days 0  
Year to date cooling degree days 0  
Moisture  
Dew Point 30 °F    
Average Humidity 79    
Maximum Humidity 89    
Minimum Humidity 65    
Precipitation  
Precipitation 0.11 in 0.13 in 1.77 in (2011)
Month to date precipitation 0.71  
Year to date precipitation 6.18  
Sea Level Pressure  
Sea Level Pressure 29.85 in    
Wind  
Wind Speed 9 mph (NE)    
Max Wind Speed 22 mph    
Max Gust Speed 34 mph    
Visibility 10 miles    
Events Rain , Snow    
T = Trace of Precipitation, MM = Missing Value Source: NWS Daily Summary

Daily Weather History Graph

Daily Weather History Graph

Search for Another Location

Airport:

Trip Planner

Search our weather history database for the weather conditions in past years. The results will help you decide how hot, cold, wet, or windy it might be!

Date:

Astronomy

Mar. 06, 2013 Rise Set
Actual Time 6:26 AM EST 5:57 PM EST
Civil Twilight 5:58 AM EST 6:25 PM EST
Nautical Twilight 5:27 AM EST 6:56 PM EST
Astronomical Twilight 4:55 AM EST 7:28 PM EST
Moon 2:33 AM EST (3/6) 12:36 PM EST (3/6)
Length of Visible Light 12h 26m
Length of Day
11h 31m
Waning Crescent, 30% of the Moon is Illuminated
Mar 6
Waning Crescent
Mar 11
New
Mar 19
First Quarter
Mar 27
Full
Apr 3
Last Quarter

Hourly Weather History & Observations

Time (EST) Temp. Windchill Dew Point Humidity Pressure Visibility Wind Dir Wind Speed Gust Speed Precip Events Conditions
12:54 AM 33.1 °F - 26.1 °F 75% 29.94 in 10.0 mi Calm Calm - N/A   Clear
1:54 AM 33.1 °F 30.0 °F 28.0 °F 82% 29.90 in 10.0 mi Variable 3.5 mph - N/A   Clear
2:54 AM 33.1 °F 27.7 °F 28.9 °F 85% 29.87 in 10.0 mi NE 5.8 mph - N/A   Clear
3:54 AM 35.1 °F 32.2 °F 30.0 °F 82% 29.85 in 10.0 mi Variable 3.5 mph - N/A   Partly Cloudy
4:41 AM 37.4 °F 31.4 °F 30.2 °F 75% 29.82 in 10.0 mi ENE 8.1 mph - N/A   Mostly Cloudy
4:54 AM 37.0 °F 32.4 °F 30.0 °F 76% 29.82 in 10.0 mi Variable 5.8 mph - N/A   Mostly Cloudy
5:14 AM 37.4 °F 31.4 °F 30.2 °F 75% 29.81 in 10.0 mi East 8.1 mph 19.6 mph N/A   Overcast
5:54 AM 37.0 °F 31.0 °F 30.9 °F 79% 29.83 in 10.0 mi ENE 8.1 mph - N/A   Overcast
6:45 AM 35.6 °F 28.0 °F 32.0 °F 87% 29.79 in 10.0 mi ENE 10.4 mph 19.6 mph 0.00 in   Overcast
7:23 AM 35.6 °F 31.7 °F 32.0 °F 87% 29.82 in 10.0 mi Variable 4.6 mph - 0.00 in Rain Light Rain
7:54 AM 36.0 °F 29.6 °F 32.0 °F 86% 29.83 in 10.0 mi ENE 8.1 mph 23.0 mph 0.00 in Rain Light Rain
8:54 AM 37.0 °F 31.0 °F 30.9 °F 79% 29.82 in 10.0 mi ENE 8.1 mph 19.6 mph 0.00 in Rain Light Rain
9:54 AM 37.9 °F 32.7 °F 30.9 °F 76% 29.82 in 10.0 mi Variable 6.9 mph 19.6 mph 0.00 in Rain Light Rain
10:54 AM 37.9 °F 29.6 °F 32.0 °F 79% 29.81 in 10.0 mi NE 13.8 mph 27.6 mph 0.01 in   Overcast
11:54 AM 37.0 °F 28.5 °F 34.0 °F 89% 29.81 in 10.0 mi NE 13.8 mph 21.9 mph 0.01 in   Overcast
12:54 PM 37.0 °F 29.8 °F 34.0 °F 89% 29.80 in 10.0 mi NE 10.4 mph 28.8 mph 0.01 in Rain Light Rain
1:54 PM 37.9 °F 30.5 °F 34.0 °F 86% 29.80 in 10.0 mi NE 11.5 mph 31.1 mph 0.01 in Rain Light Rain
2:28 PM 39.2 °F 29.0 °F 30.2 °F 70% 29.78 in 10.0 mi NE 21.9 mph 34.5 mph 0.00 in   Overcast
2:54 PM 39.9 °F 31.8 °F 28.9 °F 65% 29.81 in 10.0 mi NE 15.0 mph 32.2 mph 0.00 in   Overcast
3:54 PM 37.9 °F 30.0 °F 30.0 °F 73% 29.84 in 10.0 mi NE 12.7 mph 26.5 mph 0.00 in Rain Light Rain
4:03 PM 37.4 °F 27.5 °F 30.2 °F 75% 29.83 in 10.0 mi NE 18.4 mph 27.6 mph 0.00 in Rain Light Rain
4:11 PM 37.4 °F 29.8 °F 32.0 °F 81% 29.83 in 10.0 mi NE 11.5 mph 25.3 mph 0.01 in Rain Light Rain
4:54 PM 36.0 °F 26.3 °F 33.1 °F 89% 29.86 in 10.0 mi NNE 16.1 mph 29.9 mph 0.04 in Rain Light Rain
5:49 PM 35.6 °F 25.2 °F 32.0 °F 87% 29.86 in 10.0 mi North 18.4 mph 27.6 mph 0.03 in   Overcast
5:54 PM 36.0 °F 25.0 °F 30.9 °F 82% 29.88 in 10.0 mi North 20.7 mph 31.1 mph 0.03 in   Overcast
6:54 PM 37.9 °F 27.3 °F 28.0 °F 68% 29.90 in 10.0 mi North 21.9 mph 32.2 mph N/A   Overcast
7:54 PM 37.9 °F 28.2 °F 28.0 °F 68% 29.91 in 10.0 mi NNE 18.4 mph 28.8 mph N/A   Overcast
8:54 PM 37.0 °F 28.1 °F 28.0 °F 70% 29.93 in 10.0 mi NNE 15.0 mph 26.5 mph 0.00 in   Overcast
9:54 PM 35.1 °F 25.9 °F 30.0 °F 82% 29.95 in 10.0 mi NNE 13.8 mph 29.9 mph 0.00 in   Overcast
10:54 PM 33.1 °F 24.9 °F 30.0 °F 89% 29.96 in 9.0 mi North 10.4 mph - 0.00 in Snow Light Snow
11:54 PM 36.0 °F 26.0 °F 26.1 °F 67% 29.95 in 10.0 mi North 17.3 mph 23.0 mph 0.00 in   Overcast